This is the latest recevied weather packets stored in our database for station/object KE5QKR. If no packets are shown the sender has not sent any weather packets the latest 10 day(s).
| Time | Temp. | Humidity | Pressure | Rain* | Wind** | Luminosity | Snow |
|---|---|---|---|---|---|---|---|
| 1778162929 | 20.56° C | 99% | 1012.5 hPa | 0 mm | - | 110 W/m² | - |
| 1778162625 | 20.56° C | 99% | 1012.4 hPa | 0 mm | - | 50 W/m² | - |
| 1778162323 | 20.56° C | 99% | 1012.4 hPa | 0 mm | - | 90 W/m² | - |
| 1778162020 | 20° C | 99% | 1012.4 hPa | 0 mm | - | 69 W/m² | - |
| 1778161717 | 20.56° C | 99% | 1012.3 hPa | 0 mm | - | 23 W/m² | - |
| 1778161413 | 20.56° C | 99% | 1012.3 hPa | 0 mm | - | 32 W/m² | - |
| 1778161109 | 20.56° C | 99% | 1012.1 hPa | 0 mm | - | 46 W/m² | - |
| 1778160805 | 21.11° C | 99% | 1012.3 hPa | 0 mm | - | 45 W/m² | - |
| 1778160504 | 21.11° C | 99% | 1012.1 hPa | 0 mm | - | 18 W/m² | - |
| 1778160200 | 21.67° C | 99% | 1011.9 hPa | 0 mm | - | 50 W/m² | - |
| 1778159897 | 21.67° C | 99% | 1012 hPa | 0 mm | - | 50 W/m² | - |
| 1778159594 | 21.67° C | 99% | 1011.9 hPa | 0 mm | - | 26 W/m² | - |
| 1778159290 | 21.67° C | 99% | 1011.9 hPa | 0 mm | - | 29 W/m² | - |
| 1778158988 | 21.67° C | 99% | 1011.7 hPa | 0 mm | - | 50 W/m² | - |
| 1778158687 | 21.67° C | 99% | 1011.8 hPa | 0 mm | - | 24 W/m² | - |
| 1778158384 | 22.22° C | 99% | 1011.9 hPa | 0 mm | - | 11 W/m² | - |
| 1778158081 | 22.22° C | 99% | 1011.6 hPa | 0 mm | - | 31 W/m² | - |
| 1778157777 | 22.22° C | 99% | 1011.5 hPa | 0 mm | - | 6 W/m² | - |
| 1778157476 | 22.78° C | 99% | 1011.4 hPa | 0 mm | - | 13 W/m² | - |
| 1778157173 | 22.78° C | 99% | 1011.3 hPa | 0 mm | - | 19 W/m² | - |
| 1778156868 | 22.78° C | 99% | 1011.1 hPa | 0 mm | - | 33 W/m² | - |
| 1778156564 | 22.78° C | 99% | 1011 hPa | 0 mm | - | 23 W/m² | - |
| 1778156260 | 22.78° C | 99% | 1011.1 hPa | 0 mm | - | 18 W/m² | - |
| 1778155956 | 22.78° C | 99% | 1010.7 hPa | 0 mm | - | 10 W/m² | - |
| 1778155652 | 23.89° C | 99% | 1010.8 hPa | 0 mm | - | 8 W/m² | - |
* Rain latest hour (hover to see other rain measurements)
** Current wind speed in m/s (hover to see current wind gust speed)